Location: Bush Observatory
(40.2653°N, 94.3194°W)
Time: 05:06:07
(UTC-05:00)

JAS-2 - Visible Passes

Search period start: 25 July 2016 00:00
Search period end: 04 August 2016 00:00
Orbit: 799 x 1322 km, 98.6° (Epoch: 24 July)

Date Brightness Start Highest point End Pass type
(mag) Time Alt. Az. Time Alt. Az. Time Alt. Az.
25 Jul 9.6 01:39:18 10° NNE 01:43:47 57° ENE 01:43:47 57° ENE visible
25 Jul 11.0 03:26:00 10° NNW 03:29:11 16° WNW 03:30:16 16° WNW visible
26 Jul 11.0 00:45:17 10° NE 00:47:58 19° ENE 00:47:58 19° ENE visible
26 Jul 9.7 02:29:28 10° N 02:34:26 47° WNW 02:34:26 47° WNW visible
27 Jul 9.7 01:34:14 10° NNE 01:38:37 52° ENE 01:38:37 52° ENE visible
27 Jul 11.0 03:20:43 10° NNW 03:24:12 18° WNW 03:25:06 17° WNW visible
28 Jul 11.1 00:40:21 10° NE 00:42:48 18° ENE 00:42:48 18° ENE visible
28 Jul 9.7 02:24:20 10° N 02:29:16 52° WNW 02:29:16 52° WNW visible
29 Jul 9.9 01:29:11 10° NNE 01:33:27 47° ENE 01:33:27 47° ENE visible
29 Jul 10.9 03:15:27 10° NNW 03:19:13 20° WNW 03:19:55 20° WNW visible
30 Jul 11.3 00:35:27 10° NE 00:37:38 16° ENE 00:37:38 16° ENE visible
30 Jul 9.6 02:19:14 10° N 02:24:06 56° NW 02:24:06 56° NW visible
31 Jul 10.1 01:24:08 10° NNE 01:28:17 43° ENE 01:28:17 43° ENE visible
31 Jul 10.8 03:10:12 10° NNW 03:14:14 22° WNW 03:14:46 22° WNW visible
01 Aug 11.4 00:30:33 10° NE 00:32:28 15° ENE 00:32:28 15° ENE visible
01 Aug 9.6 02:14:06 10° N 02:18:57 59° NW 02:18:57 59° NW visible
02 Aug 10.2 01:19:06 10° NNE 01:23:08 40° ENE 01:23:08 40° ENE visible
02 Aug 10.7 03:04:58 10° NNW 03:09:16 24° WNW 03:09:36 24° WNW visible
03 Aug 11.4 00:25:41 10° NE 00:27:19 14° ENE 00:27:19 14° ENE visible
03 Aug 9.6 02:08:59 10° N 02:13:47 62° NW 02:13:47 62° NW visible
